{"data":{"norad_id":57522,"intl_designator":"2023-115B","name":"STARLINK-30256","alt_names":[],"object_type":"PAYLOAD","status":"ACTIVE","operator":null,"country":"US","launch_date":"2023-08-08","launch_site_code":"AFWTR","launch_vehicle":null,"mission":null,"orbit_class":"UNKNOWN","rcs_meters":null,"size_class":null,"mass_kg":null,"dimensions":null,"purposes":["comms"],"wikipedia_slug":null,"has_3d_model":false,"image_url":null,"decayed_at":null,"tle_current":{"epoch":"2026-09-19T06:34:18.271776Z","epoch_age_seconds":233585,"freshness":"STALE","line1":"1 57522U 23115B   26262.27382259  .00000210  00000+0  17177-4 0  9998","line2":"2 57522  43.0058 348.6653 0001334 263.4620  96.6080 15.27577329171952","mean_motion":15.27577329,"eccentricity":0.0001334,"inclination_deg":43.0058,"raan_deg":348.6653,"arg_perigee_deg":263.462,"mean_anomaly_deg":96.608,"bstar":1.7177e-5,"rev_number":17195,"period_min":94.266913540977,"perigee_km":482.14181069406,"apogee_km":483.97237727833,"semimajor_km":6861.1940939862,"source":"CELESTRAK","updated_at":"2026-09-21T09:00:33.636790Z"}}}